AirNav   Air Wisconsin Up To $57,000 Bonus
 
 1561 users online  

58FD Southerly Airport
Dundee, Florida, USA

GOING TO DUNDEE?


FAA INFORMATION EFFECTIVE 03 NOVEMBER 2022

Location

FAA Identifier: 58FD
Lat/Long: 28-00-51.0000N 081-32-26.0000W
28-00.850000N 081-32.433333W
28.0141667,-81.5405556
(estimated)
Elevation: 78 ft. / 24 m (estimated)
Variation: 03W (1990)
From city: 4 miles E of DUNDEE, FL
Time zone: UTC -5 (UTC -4 during Daylight Saving Time)
Zip code: 33853

Airport Operations

Airport use: Private use. Permission required prior to landing
Activation date: 08/1992
Control tower: no
ARTCC: JACKSONVILLE CENTER
FSS: SAINT PETERSBURG FLIGHT SERVICE STATION
Attendance: UNATNDD
Wind indicator: yes
Segmented circle: no

Airport Communications

WX AWOS-3 at X07 (8 nm SW): 124.225 (863-678-1334)
WX ASOS at GIF (12 nm W): 133.675 (863-956-2097)
WX AWOS-3 at BOW (14 nm W): 123.775 (863-533-9004)
WX AWOS-3PT at ISM (17 nm N): PHONE 407-847-0533

Nearby radio navigation aids

VOR radial/distance  VOR name  Freq  Var
LALr085/25.1LAKELAND VORTAC116.0001E
ORLr199/33.5ORLANDO VORTAC112.2000E

Airport Services

Runway Information

Runway 9/27

Dimensions: 2300 x 50 ft. / 701 x 15 m
Surface: turf, in good condition
RUNWAY 9  RUNWAY 27
Traffic pattern: leftleft

Airport Ownership and Management from official FAA records

Ownership: Privately-owned
Owner: FRANK J. DREWNIANY, M.D.
401 BROADSTAIRS DR
HAINES CITY, FL 33844-4338
Phone 305-282-8065
Manager: FRANK J. DREWNIANY, M.D.
401 BROADSTAIRS DR
HAINES CITY, FL 33844-4338
Phone 305-282-8065

Airport Operational Statistics

Aircraft based on the field: 2
Single engine airplanes: 2
    

Additional Remarks

FOR CD CTC ORLANDO APCH AT 407-852-7553.

Instrument Procedures

There are no published instrument procedures at 58FD.

Some nearby airports with instrument procedures:

X07 - Lake Wales Municipal Airport (8 nm SW)
KGIF - Winter Haven Regional Airport (12 nm W)
KBOW - Bartow Executive Airport (14 nm W)
KISM - Kissimmee Gateway Airport (17 nm N)
KAVO - Avon Park Executive Airport (25 nm S)
 
Loc | Ops | Rwys | IFR | FBO | Links
Com | Nav | Svcs | Stats | Notes

Reliance Aviation
AirBoss

 
Area around 58FD (Southerly Airport)
 
Road maps at: MapQuest Bing Google
 
Aerial photo
No photo
 
Sectional chart

 
Airport distance calculator
Flying to Southerly Airport? Find the distance to fly.

From to 58FD

Sunrise and sunset
Times for 28-Nov-2022
 Local
(UTC-5)
 Zulu
(UTC)
Morning civil twilight06:3411:34
Sunrise06:5911:59
Sunset17:2922:29
Evening civil twilight17:5522:55

Current date and time
Zulu (UTC)  28-Nov-2022 19:48:30
Local (UTC-5)  28-Nov-2022 14:48:30
 
METAR
KX07 
8nm SW 
281935Z AUTO 00000KT 10SM CLR 23/13 A3003 RMK A01
KGIF 
12nm W 
281853Z AUTO 07003KT 10SM CLR 23/12 A3005 RMK AO2 SLP172 T02330122
KBOW 
13nm W 
281845Z 09003KT 10SM SKC 23/11 A3004
KISM 
17nm N 
281856Z 00000KT 10SM CLR 23/12 A3004 RMK AO2 SLP174 T02330117 PNO $
TAF
KISM 
17nm N 
281723Z 2818/2918 35007KT P6SM SCT080 SCT250 FM282300 VRB03KT P6SM FEW200 TEMPO 2909/2912 4SM BR SCT010 FM291500 09007KT P6SM SCT200
NOTAMs
Click for the latest NOTAMs
NOTAMs are issued by the DoD/FAA and will open in a separate window not controlled by AirNav.

 

 
 

Would you like to see your business listed on this page?

 If your business provides an interesting product or service to pilots, flight crews, aircraft, or users of the Southerly Airport, you should consider listing it here.  To start the listing process, click on the button below
 
Add a business
 

Other Pages about Southerly Airport

Update a link
 
Copyright © AirNav, LLC. All rights reserved. Privacy Policy  Contact